User: anonymous   Login
Location: Peebles
(55.6412°N, 3.1714°W)
Time: 19:38:18
(UTC+00:00)
Language:

CHARLIE (NANOAVIONICS) - Orbit

View from above orbital plane
View from above orbital plane
View from above satellite
View from above satellite

Ground track
Ground track

The orbit data is extracted from the following two-line orbital elements,

1 47440U 21006AD  22332.15054647  .00008402  00000-0  40550-3 0  9993
2 47440  97.4180  28.0171 0012415  72.6305 287.6286 15.18853649102108
Epoch (UTC): 28 November 2022 03:36:47
Eccentricity: 0.0012415
inclination: 97.4180°
perigee height: 501 km
apogee height: 518 km
right ascension of ascending node: 28.0171°
argument of perigee: 72.6305°
revolutions per day: 15.18853649
mean anomaly at epoch: 287.6286°
orbit number at epoch: 10210

The dashed part of the orbit path shows where the satellite is in the earth's shadow,  

DLR